Time,TemperatureF,DewpointF,PressureIn,WindDirection,WindDirectionDegrees,WindSpeedMPH,WindSpeedGustMPH,Humidity,HourlyPrecipIn,Conditions,Clouds,dailyrainin,SoftwareType,DateUTC
2013-05-26 00:01:00,39.0,34.3,30.49,West,270,0.0,0.8,83,0.00,,,0.00,WUHU216HW,2013-05-26 04:01:00,
2013-05-26 00:07:00,38.8,33.8,30.49,WNW,293,0.0,0.0,82,0.00,,,0.00,WUHU216HW,2013-05-26 04:07:00,
2013-05-26 00:12:00,38.8,33.8,30.49,West,270,0.0,2.4,82,0.00,,,0.00,WUHU216HW,2013-05-26 04:12:00,
2013-05-26 00:17:00,38.8,33.8,30.49,WNW,293,0.0,2.4,82,0.00,,,0.00,WUHU216HW,2013-05-26 04:17:00,
2013-05-26 00:22:00,38.4,33.4,30.49,West,270,0.0,0.0,82,0.00,,,0.00,WUHU216HW,2013-05-26 04:22:00,
2013-05-26 00:27:00,38.3,33.5,30.49,West,270,1.3,1.3,83,0.00,,,0.00,WUHU216HW,2013-05-26 04:27:00,
2013-05-26 00:32:00,38.1,33.4,30.49,West,270,0.0,1.3,83,0.00,,,0.00,WUHU216HW,2013-05-26 04:32:00,
2013-05-26 00:37:00,38.3,33.5,30.49,West,270,0.0,2.4,83,0.00,,,0.00,WUHU216HW,2013-05-26 04:37:00,
2013-05-26 00:42:00,38.3,33.5,30.49,West,270,0.0,2.4,83,0.00,,,0.00,WUHU216HW,2013-05-26 04:42:00,
2013-05-26 00:47:00,38.1,33.4,30.49,West,270,0.0,2.2,83,0.00,,,0.00,WUHU216HW,2013-05-26 04:47:00,
2013-05-26 00:53:00,38.1,33.6,30.49,WNW,293,0.0,2.2,84,0.00,,,0.00,WUHU216HW,2013-05-26 04:53:00,
2013-05-26 00:58:00,38.1,33.6,30.49,WNW,293,0.0,0.8,84,0.00,,,0.00,WUHU216HW,2013-05-26 04:58:00,
2013-05-26 01:03:00,38.1,33.6,30.48,West,270,0.0,0.0,84,0.00,,,0.00,WUHU216HW,2013-05-26 05:03:00,
2013-05-26 01:08:00,37.9,33.5,30.48,West,270,0.0,0.0,84,0.00,,,0.00,WUHU216HW,2013-05-26 05:08:00,
2013-05-26 01:13:00,37.9,33.5,30.48,West,270,0.0,0.0,84,0.00,,,0.00,WUHU216HW,2013-05-26 05:13:00,
2013-05-26 01:18:00,38.1,33.6,30.48,WSW,248,1.5,1.5,84,0.00,,,0.00,WUHU216HW,2013-05-26 05:18:00,
2013-05-26 01:23:00,38.1,33.9,30.48,West,270,2.0,2.0,85,0.00,,,0.00,WUHU216HW,2013-05-26 05:23:00,
2013-05-26 01:28:00,38.1,33.6,30.48,West,270,1.3,2.2,84,0.00,,,0.00,WUHU216HW,2013-05-26 05:28:00,
2013-05-26 01:33:00,38.1,33.6,30.48,West,270,1.5,2.2,84,0.00,,,0.00,WUHU216HW,2013-05-26 05:33:00,
2013-05-26 01:38:00,37.9,33.8,30.48,WNW,293,0.0,2.0,85,0.00,,,0.00,WUHU216HW,2013-05-26 05:38:00,
2013-05-26 01:43:00,37.7,33.6,30.48,WSW,248,2.0,2.0,85,0.00,,,0.00,WUHU216HW,2013-05-26 05:43:00,
2013-05-26 01:49:00,37.5,33.4,30.48,WNW,293,0.0,2.0,85,0.00,,,0.00,WUHU216HW,2013-05-26 05:49:00,
2013-05-26 01:54:00,37.5,33.4,30.48,WNW,293,0.0,2.0,85,0.00,,,0.00,WUHU216HW,2013-05-26 05:54:00,
2013-05-26 01:59:00,37.5,33.7,30.48,West,270,0.0,0.0,86,0.00,,,0.00,WUHU216HW,2013-05-26 05:59:00,
2013-05-26 02:04:00,37.5,33.7,30.48,West,270,2.2,2.2,86,0.00,,,0.00,WUHU216HW,2013-05-26 06:04:00,
2013-05-26 02:09:00,37.5,33.7,30.48,West,270,2.4,2.6,86,0.00,,,0.00,WUHU216HW,2013-05-26 06:09:00,
2013-05-26 02:14:00,37.5,34.0,30.48,West,270,0.0,2.6,87,0.00,,,0.00,WUHU216HW,2013-05-26 06:14:00,
2013-05-26 02:19:00,37.2,33.8,30.48,WNW,293,0.0,0.0,87,0.00,,,0.00,WUHU216HW,2013-05-26 06:19:00,
2013-05-26 02:24:00,37.2,33.3,30.48,West,270,0.0,0.0,86,0.00,,,0.00,WUHU216HW,2013-05-26 06:24:00,
2013-05-26 02:29:00,37.2,33.3,30.49,West,270,0.0,0.0,86,0.00,,,0.00,WUHU216HW,2013-05-26 06:29:00,
2013-05-26 02:35:00,37.4,33.8,30.48,WSW,248,0.0,0.0,87,0.00,,,0.00,WUHU216HW,2013-05-26 06:35:00,
2013-05-26 02:40:00,37.5,34.0,30.48,WSW,248,2.0,2.0,87,0.00,,,0.00,WUHU216HW,2013-05-26 06:40:00,
2013-05-26 02:45:00,37.5,34.0,30.48,WSW,248,4.0,4.0,87,0.00,,,0.00,WUHU216HW,2013-05-26 06:45:00,
2013-05-26 02:50:00,37.5,34.0,30.48,West,270,0.0,4.0,87,0.00,,,0.00,WUHU216HW,2013-05-26 06:50:00,
2013-05-26 02:55:00,37.7,34.1,30.48,West,270,0.0,2.2,87,0.00,,,0.00,WUHU216HW,2013-05-26 06:55:00,
2013-05-26 03:00:00,37.7,34.1,30.47,WNW,293,0.0,2.2,87,0.00,,,0.00,WUHU216HW,2013-05-26 07:00:00,
2013-05-26 03:05:00,37.5,34.0,30.47,WSW,248,0.0,1.5,87,0.00,,,0.00,WUHU216HW,2013-05-26 07:05:00,
2013-05-26 03:10:00,37.7,34.1,30.48,West,270,2.4,2.4,87,0.00,,,0.00,WUHU216HW,2013-05-26 07:10:00,
2013-05-26 03:15:00,37.7,33.9,30.48,West,270,2.4,3.1,86,0.00,,,0.00,WUHU216HW,2013-05-26 07:15:00,
2013-05-26 03:21:00,37.7,33.9,30.47,WSW,248,0.0,3.5,86,0.00,,,0.00,WUHU216HW,2013-05-26 07:21:00,
2013-05-26 03:26:00,37.7,33.9,30.47,West,270,2.9,3.5,86,0.00,,,0.00,WUHU216HW,2013-05-26 07:26:00,
2013-05-26 03:31:00,37.5,33.7,30.47,West,270,2.2,3.1,86,0.00,,,0.00,WUHU216HW,2013-05-26 07:31:00,
2013-05-26 03:36:00,37.5,33.5,30.48,WNW,293,0.0,2.2,86,0.00,,,0.00,WUHU216HW,2013-05-26 07:36:00,
2013-05-26 03:41:00,37.5,33.7,30.48,WNW,293,0.0,2.2,86,0.00,,,0.00,WUHU216HW,2013-05-26 07:41:00,
2013-05-26 03:46:00,37.4,33.2,30.47,WNW,293,0.0,0.0,85,0.00,,,0.00,WUHU216HW,2013-05-26 07:46:00,
2013-05-26 03:51:00,37.5,33.4,30.48,West,270,0.0,1.3,85,0.00,,,0.00,WUHU216HW,2013-05-26 07:51:00,
2013-05-26 03:56:00,37.7,33.6,30.48,WNW,293,0.0,1.3,85,0.00,,,0.00,WUHU216HW,2013-05-26 07:56:00,
2013-05-26 04:01:00,37.9,33.8,30.48,WNW,293,0.0,0.0,85,0.00,,,0.00,WUHU216HW,2013-05-26 08:01:00,
2013-05-26 04:07:00,37.9,33.5,30.48,WNW,293,1.7,1.7,84,0.00,,,0.00,WUHU216HW,2013-05-26 08:07:00,
2013-05-26 04:12:00,38.1,33.6,30.48,WNW,293,0.0,1.7,84,0.00,,,0.00,WUHU216HW,2013-05-26 08:12:00,
2013-05-26 04:17:00,37.9,33.5,30.48,WNW,293,0.0,1.7,84,0.00,,,0.00,WUHU216HW,2013-05-26 08:17:00,
2013-05-26 04:22:00,37.9,33.5,30.48,West,270,0.0,0.0,84,0.00,,,0.00,WUHU216HW,2013-05-26 08:22:00,
2013-05-26 04:27:00,37.9,33.5,30.48,West,270,2.0,2.0,84,0.00,,,0.00,WUHU216HW,2013-05-26 08:27:00,
2013-05-26 04:32:00,37.5,33.1,30.48,WSW,248,2.6,2.6,84,0.00,,,0.00,WUHU216HW,2013-05-26 08:32:00,
2013-05-26 04:37:00,37.4,32.9,30.48,West,270,0.0,5.1,84,0.00,,,0.00,WUHU216HW,2013-05-26 08:37:00,
2013-05-26 04:42:00,37.5,33.1,30.49,WNW,293,0.0,5.1,84,0.00,,,0.00,WUHU216HW,2013-05-26 08:42:00,
2013-05-26 04:47:00,37.9,33.5,30.49,West,270,1.1,2.9,84,0.00,,,0.00,WUHU216HW,2013-05-26 08:47:00,
2013-05-26 04:53:00,37.9,33.5,30.49,WSW,248,2.4,2.9,84,0.00,,,0.00,WUHU216HW,2013-05-26 08:53:00,
2013-05-26 04:58:00,37.7,33.3,30.49,WSW,248,2.9,2.9,84,0.00,,,0.00,WUHU216HW,2013-05-26 08:58:00,
2013-05-26 05:03:00,37.0,32.6,30.49,West,270,0.0,2.9,84,0.00,,,0.00,WUHU216HW,2013-05-26 09:03:00,
2013-05-26 05:08:00,37.0,32.6,30.49,WSW,248,2.2,2.2,84,0.00,,,0.00,WUHU216HW,2013-05-26 09:08:00,
2013-05-26 05:13:00,36.6,32.5,30.49,West,270,0.0,2.2,85,0.00,,,0.00,WUHU216HW,2013-05-26 09:13:00,
2013-05-26 05:18:00,36.6,32.5,30.49,West,270,1.1,1.1,85,0.00,,,0.00,WUHU216HW,2013-05-26 09:18:00,
2013-05-26 05:23:00,36.5,32.6,30.49,West,270,0.0,1.7,86,0.00,,,0.00,WUHU216HW,2013-05-26 09:23:00,
2013-05-26 05:28:00,36.5,32.6,30.48,WSW,248,2.2,2.2,86,0.00,,,0.00,WUHU216HW,2013-05-26 09:28:00,
2013-05-26 05:33:00,36.3,32.4,30.48,West,270,0.8,2.2,86,0.00,,,0.00,WUHU216HW,2013-05-26 09:33:00,
2013-05-26 05:39:00,36.3,32.4,30.48,NW,315,0.0,3.8,86,0.00,,,0.00,WUHU216HW,2013-05-26 09:39:00,
2013-05-26 05:44:00,36.3,32.4,30.48,West,270,0.0,3.8,86,0.00,,,0.00,WUHU216HW,2013-05-26 09:44:00,
2013-05-26 05:49:00,36.3,32.4,30.48,WSW,248,2.0,2.0,86,0.00,,,0.00,WUHU216HW,2013-05-26 09:49:00,
2013-05-26 05:54:00,36.3,32.7,30.48,WSW,248,3.8,3.8,87,0.00,,,0.00,WUHU216HW,2013-05-26 09:54:00,
2013-05-26 05:59:00,36.3,32.7,30.48,NW,315,0.0,3.8,87,0.00,,,0.00,WUHU216HW,2013-05-26 09:59:00,
2013-05-26 06:04:00,36.1,32.5,30.49,WNW,293,0.0,4.6,87,0.00,,,0.00,WUHU216HW,2013-05-26 10:04:00,
2013-05-26 06:09:00,36.3,32.7,30.49,WNW,293,0.0,4.6,87,0.00,,,0.00,WUHU216HW,2013-05-26 10:09:00,
2013-05-26 06:14:00,36.3,33.0,30.50,West,270,0.8,0.8,88,0.00,,,0.00,WUHU216HW,2013-05-26 10:14:00,
2013-05-26 06:19:00,36.5,33.2,30.49,West,270,1.5,2.2,88,0.00,,,0.00,WUHU216HW,2013-05-26 10:19:00,
2013-05-26 06:25:00,36.6,33.4,30.49,WNW,293,0.0,2.2,88,0.00,,,0.00,WUHU216HW,2013-05-26 10:25:00,
2013-05-26 06:30:00,37.0,33.7,30.49,WNW,293,0.0,1.5,88,0.00,,,0.00,WUHU216HW,2013-05-26 10:30:00,
2013-05-26 06:35:00,37.4,34.1,30.49,West,270,0.0,0.6,88,0.00,,,0.00,WUHU216HW,2013-05-26 10:35:00,
2013-05-26 06:40:00,37.7,34.4,30.49,WNW,293,0.0,0.0,88,0.00,,,0.00,WUHU216HW,2013-05-26 10:40:00,
2013-05-26 06:45:00,37.9,34.6,30.49,West,270,0.0,0.0,88,0.00,,,0.00,WUHU216HW,2013-05-26 10:45:00,
2013-05-26 06:50:00,38.4,34.9,30.49,NW,315,1.3,4.0,87,0.00,,,0.00,WUHU216HW,2013-05-26 10:50:00,
2013-05-26 06:55:00,39.0,35.4,30.50,WSW,248,3.1,4.0,87,0.00,,,0.00,WUHU216HW,2013-05-26 10:55:00,
2013-05-26 07:00:00,39.7,35.8,30.50,West,270,0.0,3.5,86,0.00,,,0.00,WUHU216HW,2013-05-26 11:00:00,
2013-05-26 07:05:00,40.1,35.9,30.50,WNW,293,0.0,3.5,85,0.00,,,0.00,WUHU216HW,2013-05-26 11:05:00,
2013-05-26 07:11:00,40.6,36.7,30.51,WNW,293,0.0,0.0,86,0.00,,,0.00,WUHU216HW,2013-05-26 11:11:00,
2013-05-26 07:16:00,41.1,36.9,30.51,WNW,293,0.0,0.0,85,0.00,,,0.00,WUHU216HW,2013-05-26 11:16:00,
2013-05-26 07:21:00,41.5,36.6,30.51,WSW,248,1.3,4.6,83,0.00,,,0.00,WUHU216HW,2013-05-26 11:21:00,
2013-05-26 07:26:00,42.0,37.2,30.52,NW,315,0.0,4.6,83,0.00,,,0.00,WUHU216HW,2013-05-26 11:26:00,
2013-05-26 07:31:00,42.8,37.6,30.52,NW,315,1.1,2.6,82,0.00,,,0.00,WUHU216HW,2013-05-26 11:31:00,
2013-05-26 07:36:00,43.7,38.2,30.52,SW,225,3.5,3.5,81,0.00,,,0.00,WUHU216HW,2013-05-26 11:36:00,
2013-05-26 07:41:00,44.4,38.6,30.53,NW,315,1.5,3.5,80,0.00,,,0.00,WUHU216HW,2013-05-26 11:41:00,
2013-05-26 07:46:00,45.1,39.0,30.52,West,270,0.0,3.5,79,0.00,,,0.00,WUHU216HW,2013-05-26 11:46:00,
2013-05-26 07:51:00,46.0,39.5,30.53,West,270,0.0,1.5,78,0.00,,,0.00,WUHU216HW,2013-05-26 11:51:00,
2013-05-26 07:57:00,46.7,39.9,30.53,NW,315,0.0,0.0,77,0.00,,,0.00,WUHU216HW,2013-05-26 11:57:00,
2013-05-26 08:02:00,47.4,40.2,30.53,North,0,0.0,0.0,76,0.00,,,0.00,WUHU216HW,2013-05-26 12:02:00,
2013-05-26 08:07:00,48.5,39.8,30.53,NNE,23,1.5,1.5,72,0.00,,,0.00,WUHU216HW,2013-05-26 12:07:00,
2013-05-26 08:12:00,49.1,39.7,30.53,NNE,23,5.1,5.1,70,0.00,,,0.00,WUHU216HW,2013-05-26 12:12:00,
2013-05-26 08:17:00,49.4,39.7,30.53,North,0,7.1,7.1,69,0.00,,,0.00,WUHU216HW,2013-05-26 12:17:00,
2013-05-26 08:22:00,49.8,37.6,30.53,NNE,23,8.0,11.1,63,0.00,,,0.00,WUHU216HW,2013-05-26 12:22:00,
2013-05-26 08:27:00,50.1,38.4,30.53,North,0,6.2,11.1,64,0.00,,,0.00,WUHU216HW,2013-05-26 12:27:00,
2013-05-26 08:32:00,50.3,39.0,30.53,NNE,23,8.9,10.7,65,0.00,,,0.00,WUHU216HW,2013-05-26 12:32:00,
2013-05-26 08:37:00,50.3,39.3,30.53,NNE,23,12.9,12.9,66,0.00,,,0.00,WUHU216HW,2013-05-26 12:37:00,
2013-05-26 08:42:00,50.5,38.3,30.52,NNE,23,6.7,12.9,63,0.00,,,0.00,WUHU216HW,2013-05-26 12:42:00,
2013-05-26 08:48:00,50.7,39.7,30.53,NNE,23,9.1,12.9,66,0.00,,,0.00,WUHU216HW,2013-05-26 12:48:00,
2013-05-26 08:53:00,50.7,39.7,30.53,NNE,23,11.4,12.9,66,0.00,,,0.00,WUHU216HW,2013-05-26 12:53:00,
2013-05-26 08:58:00,50.7,40.1,30.53,NNE,23,10.5,11.8,67,0.00,,,0.00,WUHU216HW,2013-05-26 12:58:00,
2013-05-26 09:03:00,50.7,40.9,30.53,North,0,11.8,12.0,69,0.00,,,0.00,WUHU216HW,2013-05-26 13:03:00,
2013-05-26 09:08:00,50.5,39.9,30.54,NNE,23,11.1,12.3,67,0.00,,,0.00,WUHU216HW,2013-05-26 13:08:00,
2013-05-26 09:13:00,50.5,39.5,30.54,NNE,23,11.1,12.3,66,0.00,,,0.00,WUHU216HW,2013-05-26 13:13:00,
2013-05-26 09:18:00,50.7,39.7,30.54,North,0,13.8,13.8,66,0.00,,,0.00,WUHU216HW,2013-05-26 13:18:00,
2013-05-26 09:23:00,50.7,38.9,30.55,North,0,9.6,13.8,64,0.00,,,0.00,WUHU216HW,2013-05-26 13:23:00,
2013-05-26 09:28:00,50.9,39.1,30.55,NNE,23,10.5,11.8,64,0.00,,,0.00,WUHU216HW,2013-05-26 13:28:00,
2013-05-26 09:34:00,51.0,39.2,30.55,North,0,11.8,11.8,64,0.00,,,0.00,WUHU216HW,2013-05-26 13:34:00,
2013-05-26 09:39:00,51.4,39.6,30.55,NNE,23,9.1,11.8,64,0.00,,,0.00,WUHU216HW,2013-05-26 13:39:00,
2013-05-26 09:44:00,51.6,39.3,30.55,NNE,23,7.6,11.6,63,0.00,,,0.00,WUHU216HW,2013-05-26 13:44:00,
2013-05-26 09:49:00,51.9,38.4,30.55,NNE,23,9.3,11.6,60,0.00,,,0.00,WUHU216HW,2013-05-26 13:49:00,
2013-05-26 09:54:00,52.5,38.5,30.55,NNE,23,10.5,10.5,59,0.00,,,0.00,WUHU216HW,2013-05-26 13:54:00,
2013-05-26 09:59:00,52.8,37.5,30.55,NNE,23,9.1,10.5,56,0.00,,,0.00,WUHU216HW,2013-05-26 13:59:00,
2013-05-26 10:04:00,53.4,38.5,30.55,NNE,23,7.8,10.5,57,0.00,,,0.00,WUHU216HW,2013-05-26 14:04:00,
2013-05-26 10:09:00,53.9,39.0,30.55,NNE,23,4.9,8.9,57,0.00,,,0.00,WUHU216HW,2013-05-26 14:09:00,
2013-05-26 10:14:00,54.5,39.0,30.55,North,0,7.3,7.8,56,0.00,,,0.00,WUHU216HW,2013-05-26 14:14:00,
2013-05-26 10:20:00,55.2,40.1,30.55,NNE,23,7.3,8.0,57,0.00,,,0.00,WUHU216HW,2013-05-26 14:20:00,
2013-05-26 10:25:00,55.5,40.0,30.54,NNE,23,5.3,8.0,56,0.00,,,0.00,WUHU216HW,2013-05-26 14:25:00,
2013-05-26 10:30:00,56.1,40.1,30.55,NNE,23,5.1,8.0,55,0.00,,,0.00,WUHU216HW,2013-05-26 14:30:00,
2013-05-26 10:35:00,56.8,39.8,30.55,NE,45,3.5,8.0,53,0.00,,,0.00,WUHU216HW,2013-05-26 14:35:00,
2013-05-26 10:40:00,57.5,39.6,30.55,NNE,23,4.0,6.9,51,0.00,,,0.00,WUHU216HW,2013-05-26 14:40:00,
2013-05-26 10:45:00,58.2,39.8,30.55,NE,45,4.0,4.4,50,0.00,,,0.00,WUHU216HW,2013-05-26 14:45:00,
2013-05-26 10:50:00,58.8,40.2,30.55,NNE,23,3.3,4.6,50,0.00,,,0.00,WUHU216HW,2013-05-26 14:50:00,
2013-05-26 10:55:00,59.3,40.7,30.55,NNE,23,5.1,5.1,50,0.00,,,0.00,WUHU216HW,2013-05-26 14:55:00,
2013-05-26 11:00:00,59.1,41.0,30.55,NNE,23,7.1,7.1,51,0.00,,,0.00,WUHU216HW,2013-05-26 15:00:00,
2013-05-26 11:06:00,59.1,40.6,30.56,NE,45,8.0,8.0,50,0.00,,,0.00,WUHU216HW,2013-05-26 15:06:00,
2013-05-26 11:11:00,59.5,40.0,30.56,NE,45,4.4,8.0,49,0.00,,,0.00,WUHU216HW,2013-05-26 15:11:00,
2013-05-26 11:16:00,59.9,41.2,30.56,NE,45,5.5,6.7,50,0.00,,,0.00,WUHU216HW,2013-05-26 15:16:00,
2013-05-26 11:21:00,60.4,41.7,30.55,NE,45,4.9,5.5,50,0.00,,,0.00,WUHU216HW,2013-05-26 15:21:00,
2013-05-26 11:26:00,60.6,41.3,30.55,NE,45,5.1,6.0,50,0.00,,,0.00,WUHU216HW,2013-05-26 15:26:00,
2013-05-26 11:31:00,60.6,41.9,30.55,NE,45,5.8,6.0,50,0.00,,,0.00,WUHU216HW,2013-05-26 15:31:00,
2013-05-26 11:36:00,60.9,43.2,30.55,NE,45,6.7,6.7,52,0.00,,,0.00,WUHU216HW,2013-05-26 15:36:00,
2013-05-26 11:41:00,61.1,42.4,30.54,NE,45,6.9,6.9,50,0.00,,,0.00,WUHU216HW,2013-05-26 15:41:00,
2013-05-26 11:46:00,60.9,42.7,30.54,NE,45,7.1,7.3,51,0.00,,,0.00,WUHU216HW,2013-05-26 15:46:00,
2013-05-26 11:52:00,59.5,40.9,30.54,NE,45,9.6,10.9,50,0.00,,,0.00,WUHU216HW,2013-05-26 15:52:00,
2013-05-26 11:57:00,58.8,42.1,30.54,NNE,23,10.2,10.9,54,0.00,,,0.00,WUHU216HW,2013-05-26 15:57:00,
2013-05-26 12:02:00,58.8,43.1,30.54,NNE,23,11.6,11.6,56,0.00,,,0.00,WUHU216HW,2013-05-26 16:02:00,
2013-05-26 12:07:00,58.8,41.7,30.54,NNE,23,9.6,11.6,53,0.00,,,0.00,WUHU216HW,2013-05-26 16:07:00,
2013-05-26 12:12:00,59.3,43.1,30.54,NNE,23,8.5,9.8,55,0.00,,,0.00,WUHU216HW,2013-05-26 16:12:00,
2013-05-26 12:17:00,59.5,43.3,30.54,NNE,23,9.1,9.6,55,0.00,,,0.00,WUHU216HW,2013-05-26 16:17:00,
2013-05-26 12:22:00,59.3,42.6,30.54,NNE,23,10.9,11.1,54,0.00,,,0.00,WUHU216HW,2013-05-26 16:22:00,
2013-05-26 12:27:00,59.0,42.3,30.54,NE,45,10.5,11.1,54,0.00,,,0.00,WUHU216HW,2013-05-26 16:27:00,
2013-05-26 12:32:00,59.5,42.8,30.54,NE,45,6.2,10.5,54,0.00,,,0.00,WUHU216HW,2013-05-26 16:32:00,
2013-05-26 12:37:00,59.9,43.6,30.53,NNE,23,11.1,11.1,55,0.00,,,0.00,WUHU216HW,2013-05-26 16:37:00,
2013-05-26 12:43:00,59.5,42.9,30.54,NE,45,8.5,11.1,54,0.00,,,0.00,WUHU216HW,2013-05-26 16:43:00,
2013-05-26 12:48:00,59.5,42.8,30.54,NNE,23,6.9,9.1,54,0.00,,,0.00,WUHU216HW,2013-05-26 16:48:00,
2013-05-26 12:53:00,59.3,42.6,30.53,NE,45,11.6,11.6,54,0.00,,,0.00,WUHU216HW,2013-05-26 16:53:00,
2013-05-26 12:58:00,58.8,43.1,30.53,NNE,23,6.7,11.6,56,0.00,,,0.00,WUHU216HW,2013-05-26 16:58:00,
2013-05-26 13:03:00,58.8,43.1,30.53,NNE,23,9.1,11.4,56,0.00,,,0.00,WUHU216HW,2013-05-26 17:03:00,
2013-05-26 13:08:00,58.8,43.1,30.53,NE,45,9.1,9.8,56,0.00,,,0.00,WUHU216HW,2013-05-26 17:08:00,
2013-05-26 13:13:00,58.8,42.9,30.53,NE,45,10.5,10.5,55,0.00,,,0.00,WUHU216HW,2013-05-26 17:13:00,
2013-05-26 13:18:00,58.8,42.6,30.53,NE,45,9.1,10.5,55,0.00,,,0.00,WUHU216HW,2013-05-26 17:18:00,
2013-05-26 13:23:00,58.8,42.6,30.53,NE,45,8.2,10.5,55,0.00,,,0.00,WUHU216HW,2013-05-26 17:23:00,
2013-05-26 13:28:00,59.3,43.6,30.53,NE,45,7.3,8.9,56,0.00,,,0.00,WUHU216HW,2013-05-26 17:28:00,
2013-05-26 13:34:00,60.0,43.3,30.53,NE,45,5.1,8.9,54,0.00,,,0.00,WUHU216HW,2013-05-26 17:34:00,
2013-05-26 13:39:00,61.3,44.0,30.53,NE,45,7.1,7.3,53,0.00,,,0.00,WUHU216HW,2013-05-26 17:39:00,
2013-05-26 13:44:00,61.8,43.5,30.53,NE,45,7.1,7.1,51,0.00,,,0.00,WUHU216HW,2013-05-26 17:44:00,
2013-05-26 13:49:00,61.8,43.5,30.53,NE,45,4.4,7.1,51,0.00,,,0.00,WUHU216HW,2013-05-26 17:49:00,
2013-05-26 13:54:00,62.7,44.3,30.53,NE,45,4.9,7.1,51,0.00,,,0.00,WUHU216HW,2013-05-26 17:54:00,
2013-05-26 13:59:00,62.7,43.8,30.53,NE,45,6.9,6.9,50,0.00,,,0.00,WUHU216HW,2013-05-26 17:59:00,
2013-05-26 14:04:00,62.9,43.4,30.52,NE,45,7.3,7.3,49,0.00,,,0.00,WUHU216HW,2013-05-26 18:04:00,
2013-05-26 14:09:00,62.9,44.0,30.52,NE,45,5.3,7.3,50,0.00,,,0.00,WUHU216HW,2013-05-26 18:09:00,
2013-05-26 14:14:00,62.9,44.0,30.52,NE,45,5.5,7.3,50,0.00,,,0.00,WUHU216HW,2013-05-26 18:14:00,
2013-05-26 14:20:00,63.3,44.3,30.52,ENE,68,5.3,6.9,50,0.00,,,0.00,WUHU216HW,2013-05-26 18:20:00,
2013-05-26 14:25:00,64.0,44.4,30.52,ENE,68,7.1,7.1,49,0.00,,,0.00,WUHU216HW,2013-05-26 18:25:00,
2013-05-26 14:30:00,64.0,43.8,30.52,ENE,68,6.2,7.1,48,0.00,,,0.00,WUHU216HW,2013-05-26 18:30:00,
2013-05-26 14:35:00,64.2,44.0,30.52,ENE,68,4.6,6.7,48,0.00,,,0.00,WUHU216HW,2013-05-26 18:35:00,
2013-05-26 14:40:00,64.2,42.8,30.52,ENE,68,6.7,6.7,46,0.00,,,0.00,WUHU216HW,2013-05-26 18:40:00,
2013-05-26 14:45:00,64.0,43.8,30.52,ENE,68,4.9,6.7,48,0.00,,,0.00,WUHU216HW,2013-05-26 18:45:00,
2013-05-26 14:50:00,64.5,43.7,30.52,East,90,5.3,6.4,47,0.00,,,0.00,WUHU216HW,2013-05-26 18:50:00,
2013-05-26 14:55:00,65.1,43.7,30.52,ENE,68,4.0,5.5,46,0.00,,,0.00,WUHU216HW,2013-05-26 18:55:00,
2013-05-26 15:00:00,65.1,43.7,30.52,SE,135,3.3,5.5,46,0.00,,,0.00,WUHU216HW,2013-05-26 19:00:00,
2013-05-26 15:05:00,65.1,43.7,30.52,ENE,68,4.0,4.6,46,0.00,,,0.00,WUHU216HW,2013-05-26 19:05:00,
2013-05-26 15:11:00,65.6,44.2,30.52,SE,135,4.2,4.6,46,0.00,,,0.00,WUHU216HW,2013-05-26 19:11:00,
2013-05-26 15:16:00,65.6,43.0,30.52,ENE,68,2.2,4.2,44,0.00,,,0.00,WUHU216HW,2013-05-26 19:16:00,
2013-05-26 15:21:00,65.8,43.8,30.52,SE,135,2.9,4.2,45,0.00,,,0.00,WUHU216HW,2013-05-26 19:21:00,
2013-05-26 15:26:00,66.0,43.7,30.52,ESE,113,3.1,3.1,44,0.00,,,0.00,WUHU216HW,2013-05-26 19:26:00,
2013-05-26 15:31:00,66.3,43.7,30.52,SE,135,4.4,4.4,44,0.00,,,0.00,WUHU216HW,2013-05-26 19:31:00,
2013-05-26 15:36:00,67.2,43.3,30.51,ESE,113,3.5,4.4,42,0.00,,,0.00,WUHU216HW,2013-05-26 19:36:00,
2013-05-26 15:41:00,67.2,43.3,30.51,SSE,158,3.5,4.2,42,0.00,,,0.00,WUHU216HW,2013-05-26 19:41:00,
2013-05-26 15:46:00,66.9,43.0,30.51,SE,135,3.1,4.2,42,0.00,,,0.00,WUHU216HW,2013-05-26 19:46:00,
2013-05-26 15:51:00,67.1,42.5,30.51,ESE,113,4.9,4.9,41,0.00,,,0.00,WUHU216HW,2013-05-26 19:51:00,
2013-05-26 15:57:00,66.9,41.0,30.50,ESE,113,5.3,5.3,39,0.00,,,0.00,WUHU216HW,2013-05-26 19:57:00,
2013-05-26 16:02:00,67.2,41.4,30.50,ESE,113,6.4,6.4,39,0.00,,,0.00,WUHU216HW,2013-05-26 20:02:00,
2013-05-26 16:07:00,67.2,41.4,30.50,ESE,113,4.4,6.4,39,0.00,,,0.00,WUHU216HW,2013-05-26 20:07:00,
2013-05-26 16:12:00,67.4,40.8,30.50,ESE,113,4.9,6.0,38,0.00,,,0.00,WUHU216HW,2013-05-26 20:12:00,
2013-05-26 16:17:00,67.2,40.6,30.50,SE,135,5.8,5.8,38,0.00,,,0.00,WUHU216HW,2013-05-26 20:17:00,
2013-05-26 16:22:00,66.5,41.5,30.49,SSE,158,4.9,6.7,40,0.00,,,0.00,WUHU216HW,2013-05-26 20:22:00,
2013-05-26 16:27:00,66.0,41.5,30.49,SE,135,5.3,6.9,40,0.00,,,0.00,WUHU216HW,2013-05-26 20:27:00,
2013-05-26 16:32:00,64.9,41.1,30.49,SSE,158,7.3,7.3,42,0.00,,,0.00,WUHU216HW,2013-05-26 20:32:00,
2013-05-26 16:37:00,64.2,39.9,30.49,SSE,158,9.1,9.1,41,0.00,,,0.00,WUHU216HW,2013-05-26 20:37:00,
2013-05-26 16:42:00,63.6,39.4,30.49,SSE,158,5.3,9.1,41,0.00,,,0.00,WUHU216HW,2013-05-26 20:42:00,
2013-05-26 16:48:00,64.0,39.8,30.49,SSE,158,4.6,6.2,41,0.00,,,0.00,WUHU216HW,2013-05-26 20:48:00,
2013-05-26 16:53:00,64.2,39.3,30.49,SE,135,5.5,6.9,40,0.00,,,0.00,WUHU216HW,2013-05-26 20:53:00,
2013-05-26 16:58:00,64.5,39.7,30.48,SSE,158,5.1,6.9,40,0.00,,,0.00,WUHU216HW,2013-05-26 20:58:00,
2013-05-26 17:03:00,64.7,40.4,30.48,SSE,158,5.8,5.8,41,0.00,,,0.00,WUHU216HW,2013-05-26 21:03:00,
2013-05-26 17:08:00,64.9,38.6,30.48,SSE,158,4.0,5.8,38,0.00,,,0.00,WUHU216HW,2013-05-26 21:08:00,
2013-05-26 17:13:00,64.5,39.0,30.48,SSE,158,0.0,7.3,39,0.00,,,0.00,WUHU216HW,2013-05-26 21:13:00,
2013-05-26 17:18:00,63.3,38.5,30.48,SSE,158,3.5,7.3,40,0.00,,,0.00,WUHU216HW,2013-05-26 21:18:00,
2013-05-26 17:23:00,62.7,37.3,30.48,SE,135,1.5,3.5,39,0.00,,,0.00,WUHU216HW,2013-05-26 21:23:00,
2013-05-26 17:28:00,63.1,37.7,30.48,SE,135,1.5,3.1,39,0.00,,,0.00,WUHU216HW,2013-05-26 21:28:00,
2013-05-26 17:34:00,64.5,38.2,30.48,SE,135,0.0,2.4,38,0.00,,,0.00,WUHU216HW,2013-05-26 21:34:00,
2013-05-26 17:39:00,66.9,39.6,30.48,SE,135,0.0,2.0,37,0.00,,,0.00,WUHU216HW,2013-05-26 21:39:00,
2013-05-26 17:44:00,68.5,39.5,30.48,SE,135,1.3,1.3,35,0.00,,,0.00,WUHU216HW,2013-05-26 21:44:00,
2013-05-26 17:49:00,69.2,40.2,30.48,SSE,158,1.3,1.3,35,0.00,,,0.00,WUHU216HW,2013-05-26 21:49:00,
2013-05-26 17:54:00,69.6,38.3,30.48,SE,135,2.2,2.2,32,0.00,,,0.00,WUHU216HW,2013-05-26 21:54:00,
2013-05-26 17:59:00,68.9,37.7,30.47,SE,135,0.0,2.2,32,0.00,,,0.00,WUHU216HW,2013-05-26 21:59:00,
2013-05-26 18:04:00,67.8,38.2,30.46,SE,135,0.0,2.4,34,0.00,,,0.00,WUHU216HW,2013-05-26 22:04:00,
2013-05-26 18:09:00,67.6,38.8,30.46,SE,135,0.0,2.4,35,0.00,,,0.00,WUHU216HW,2013-05-26 22:09:00,
2013-05-26 18:14:00,67.8,38.9,30.47,SE,135,0.8,2.0,35,0.00,,,0.00,WUHU216HW,2013-05-26 22:14:00,
2013-05-26 18:19:00,67.6,38.8,30.46,SE,135,2.0,2.0,35,0.00,,,0.00,WUHU216HW,2013-05-26 22:19:00,
2013-05-26 18:25:00,67.1,38.3,30.46,SSE,158,4.0,4.0,35,0.00,,,0.00,WUHU216HW,2013-05-26 22:25:00,
2013-05-26 18:30:00,64.5,37.5,30.46,SSE,158,4.6,5.3,37,0.00,,,0.00,WUHU216HW,2013-05-26 22:30:00,
2013-05-26 18:35:00,61.8,37.8,30.46,SSE,158,1.3,5.3,41,0.00,,,0.00,WUHU216HW,2013-05-26 22:35:00,
2013-05-26 18:40:00,59.9,37.8,30.46,SSE,158,3.1,4.6,44,0.00,,,0.00,WUHU216HW,2013-05-26 22:40:00,
2013-05-26 18:45:00,57.0,36.3,30.46,SSE,158,2.0,3.5,46,0.00,,,0.00,WUHU216HW,2013-05-26 22:45:00,
2013-05-26 18:50:00,55.9,36.4,30.45,SE,135,7.1,7.1,48,0.00,,,0.00,WUHU216HW,2013-05-26 22:50:00,
2013-05-26 18:55:00,55.5,34.9,30.46,South,180,0.0,7.1,46,0.00,,,0.00,WUHU216HW,2013-05-26 22:55:00,
2013-05-26 19:00:00,55.2,32.4,30.46,SSE,158,3.8,4.4,42,0.00,,,0.00,WUHU216HW,2013-05-26 23:00:00,
2013-05-26 19:05:00,54.5,31.2,30.45,SSE,158,5.5,6.9,41,0.00,,,0.00,WUHU216HW,2013-05-26 23:05:00,
2013-05-26 19:10:00,53.6,31.5,30.45,South,180,0.0,6.9,43,0.00,,,0.00,WUHU216HW,2013-05-26 23:10:00,
2013-05-26 19:16:00,53.2,30.6,30.46,South,180,6.4,6.4,42,0.00,,,0.00,WUHU216HW,2013-05-26 23:16:00,
2013-05-26 19:21:00,53.0,31.5,30.45,SSE,158,5.8,6.4,44,0.00,,,0.00,WUHU216HW,2013-05-26 23:21:00,
2013-05-26 19:26:00,52.7,31.2,30.45,SSE,158,5.1,5.8,44,0.00,,,0.00,WUHU216HW,2013-05-26 23:26:00,
2013-05-26 19:31:00,52.7,31.8,30.45,SSE,158,3.8,5.3,45,0.00,,,0.00,WUHU216HW,2013-05-26 23:31:00,
2013-05-26 19:36:00,52.5,32.2,30.45,South,180,4.4,5.1,46,0.00,,,0.00,WUHU216HW,2013-05-26 23:36:00,
2013-05-26 19:41:00,52.3,32.0,30.45,SSE,158,1.5,5.1,46,0.00,,,0.00,WUHU216HW,2013-05-26 23:41:00,
2013-05-26 19:46:00,52.3,33.1,30.45,SSE,158,3.1,3.1,48,0.00,,,0.00,WUHU216HW,2013-05-26 23:46:00,
2013-05-26 19:51:00,51.9,32.2,30.45,SSE,158,5.3,5.3,47,0.00,,,0.00,WUHU216HW,2013-05-26 23:51:00,
2013-05-26 19:56:00,51.9,32.2,30.45,SSE,158,0.6,5.3,47,0.00,,,0.00,WUHU216HW,2013-05-26 23:56:00,
2013-05-26 20:02:00,51.6,31.9,30.44,South,180,0.0,5.3,47,0.00,,,0.00,WUHU216HW,2013-05-27 00:02:00,
2013-05-26 20:07:00,51.6,32.5,30.45,SSE,158,0.0,2.2,48,0.00,,,0.00,WUHU216HW,2013-05-27 00:07:00,
2013-05-26 20:12:00,51.6,32.5,30.44,South,180,0.0,0.0,48,0.00,,,0.00,WUHU216HW,2013-05-27 00:12:00,
2013-05-26 20:17:00,51.8,32.8,30.44,SSE,158,0.0,0.0,48,0.00,,,0.00,WUHU216HW,2013-05-27 00:17:00,
2013-05-26 20:22:00,51.4,32.9,30.45,SSW,203,0.0,3.8,49,0.00,,,0.00,WUHU216HW,2013-05-27 00:22:00,
2013-05-26 20:27:00,50.9,32.4,30.44,SSW,203,0.0,3.8,49,0.00,,,0.00,WUHU216HW,2013-05-27 00:27:00,
2013-05-26 20:32:00,49.8,32.0,30.44,SSW,203,0.0,0.0,50,0.00,,,0.00,WUHU216HW,2013-05-27 00:32:00,
2013-05-26 20:37:00,49.2,31.9,30.44,SSW,203,0.0,0.0,51,0.00,,,0.00,WUHU216HW,2013-05-27 00:37:00,
2013-05-26 20:42:00,48.5,32.5,30.44,West,270,0.0,0.0,54,0.00,,,0.00,WUHU216HW,2013-05-27 00:42:00,
2013-05-26 20:48:00,48.0,32.5,30.44,West,270,0.0,0.0,55,0.00,,,0.00,WUHU216HW,2013-05-27 00:48:00,
2013-05-26 20:53:00,47.4,32.4,30.43,WSW,248,0.0,0.0,56,0.00,,,0.00,WUHU216HW,2013-05-27 00:53:00,
2013-05-26 20:58:00,46.9,32.4,30.44,West,270,0.0,0.0,57,0.00,,,0.00,WUHU216HW,2013-05-27 00:58:00,
2013-05-26 21:03:00,46.2,32.1,30.44,WSW,248,0.0,0.0,58,0.00,,,0.00,WUHU216HW,2013-05-27 01:03:00,
2013-05-26 21:08:00,46.0,32.0,30.43,WSW,248,0.0,2.0,58,0.00,,,0.00,WUHU216HW,2013-05-27 01:08:00,
2013-05-26 21:13:00,45.5,32.4,30.44,West,270,0.0,2.0,60,0.00,,,0.00,WUHU216HW,2013-05-27 01:13:00,
2013-05-26 21:18:00,44.7,32.1,30.44,West,270,0.0,0.0,61,0.00,,,0.00,WUHU216HW,2013-05-27 01:18:00,
2013-05-26 21:23:00,44.4,32.2,30.44,West,270,0.0,0.0,62,0.00,,,0.00,WUHU216HW,2013-05-27 01:23:00,
2013-05-26 21:28:00,44.2,32.4,30.44,West,270,0.0,0.0,63,0.00,,,0.00,WUHU216HW,2013-05-27 01:28:00,
2013-05-26 21:34:00,43.8,32.4,30.44,West,270,0.0,0.0,64,0.00,,,0.00,WUHU216HW,2013-05-27 01:34:00,
2013-05-26 21:39:00,43.5,32.1,30.44,West,270,0.0,0.0,64,0.00,,,0.00,WUHU216HW,2013-05-27 01:39:00,
2013-05-26 21:44:00,43.5,32.1,30.44,West,270,0.0,0.0,64,0.00,,,0.00,WUHU216HW,2013-05-27 01:44:00,
2013-05-26 21:49:00,43.1,32.1,30.44,West,270,0.0,0.0,65,0.00,,,0.00,WUHU216HW,2013-05-27 01:49:00,
2013-05-26 21:54:00,42.9,31.9,30.44,West,270,0.0,0.0,65,0.00,,,0.00,WUHU216HW,2013-05-27 01:54:00,
2013-05-26 21:59:00,42.6,32.0,30.44,West,270,0.0,0.0,66,0.00,,,0.00,WUHU216HW,2013-05-27 01:59:00,
2013-05-26 22:04:00,42.4,32.2,30.44,WSW,248,0.0,0.0,67,0.00,,,0.00,WUHU216HW,2013-05-27 02:04:00,
2013-05-26 22:09:00,42.2,32.0,30.44,West,270,0.0,0.0,67,0.00,,,0.00,WUHU216HW,2013-05-27 02:09:00,
2013-05-26 22:14:00,42.0,32.2,30.44,West,270,0.0,0.0,68,0.00,,,0.00,WUHU216HW,2013-05-27 02:14:00,
2013-05-26 22:19:00,41.9,32.5,30.44,West,270,0.0,0.0,69,0.00,,,0.00,WUHU216HW,2013-05-27 02:19:00,
2013-05-26 22:24:00,41.7,32.3,30.44,WNW,293,0.0,0.0,69,0.00,,,0.00,WUHU216HW,2013-05-27 02:24:00,
2013-05-26 22:29:00,41.7,32.7,30.44,West,270,0.0,0.0,70,0.00,,,0.00,WUHU216HW,2013-05-27 02:29:00,
2013-05-26 22:35:00,41.5,32.5,30.43,WNW,293,0.0,0.0,70,0.00,,,0.00,WUHU216HW,2013-05-27 02:35:00,
2013-05-26 22:40:00,41.5,32.8,30.44,West,270,0.0,0.0,71,0.00,,,0.00,WUHU216HW,2013-05-27 02:40:00,
2013-05-26 22:45:00,41.3,32.6,30.44,WNW,293,0.0,0.0,71,0.00,,,0.00,WUHU216HW,2013-05-27 02:45:00,
2013-05-26 22:50:00,41.1,32.8,30.44,West,270,0.0,0.0,72,0.00,,,0.00,WUHU216HW,2013-05-27 02:50:00,
2013-05-26 22:55:00,41.1,32.8,30.44,West,270,0.0,0.0,72,0.00,,,0.00,WUHU216HW,2013-05-27 02:55:00,
2013-05-26 23:00:00,41.0,32.6,30.45,West,270,0.0,0.0,72,0.00,,,0.00,WUHU216HW,2013-05-27 03:00:00,
2013-05-26 23:05:00,41.0,32.9,30.44,West,270,0.0,0.0,73,0.00,,,0.00,WUHU216HW,2013-05-27 03:05:00,
2013-05-26 23:10:00,40.8,32.7,30.44,West,270,0.0,0.0,73,0.00,,,0.00,WUHU216HW,2013-05-27 03:10:00,
2013-05-26 23:15:00,40.6,32.6,30.44,WNW,293,0.0,0.0,73,0.00,,,0.00,WUHU216HW,2013-05-27 03:15:00,
2013-05-26 23:21:00,40.2,32.5,30.44,West,270,0.0,0.0,74,0.00,,,0.00,WUHU216HW,2013-05-27 03:21:00,
2013-05-26 23:26:00,40.1,32.7,30.44,West,270,0.0,1.3,75,0.00,,,0.00,WUHU216HW,2013-05-27 03:26:00,
2013-05-26 23:31:00,39.9,32.9,30.44,WSW,248,0.0,1.3,76,0.00,,,0.00,WUHU216HW,2013-05-27 03:31:00,
2013-05-26 23:36:00,39.9,32.9,30.44,WNW,293,0.0,0.0,76,0.00,,,0.00,WUHU216HW,2013-05-27 03:36:00,
2013-05-26 23:41:00,39.7,32.7,30.44,WNW,293,0.0,0.0,76,0.00,,,0.00,WUHU216HW,2013-05-27 03:41:00,
2013-05-26 23:46:00,39.3,32.7,30.44,West,270,0.0,0.0,77,0.00,,,0.00,WUHU216HW,2013-05-27 03:46:00,
2013-05-26 23:51:00,39.3,32.7,30.45,West,270,0.0,0.0,77,0.00,,,0.00,WUHU216HW,2013-05-27 03:51:00,
2013-05-26 23:56:00,39.0,32.4,30.44,WNW,293,0.0,0.0,77,0.00,,,0.00,WUHU216HW,2013-05-27 03:56:00,